Printer-friendly version

IAU Minor Planet Center

Minor Planet Center

MPEC 2004-H91 : 2004 HV60

The following Minor Planet Electronic Circular may be linked-to from your own Web pages, but must not otherwise be redistributed electronically.


Read MPEC 2004-H90 Read MPEC 2004-J01


M.P.E.C. 2004-H91                                Issued 2004 Apr. 30, 18:23 UT

     The Minor Planet Electronic Circulars contain information on unusual
         minor planets and routine data on comets.  They are published
   on behalf of Commission 20 of the International Astronomical Union by the
          Minor Planet Center, Smithsonian Astrophysical Observatory,
                          Cambridge, MA 02138, U.S.A.

         Supported in part by the Steven and Michele Kirsch Foundation
             Prepared using the Tamkin Foundation Computer Network

                              MPC@CFA.HARVARD.EDU
          URL http://cfa-www.harvard.edu/iau/mpc.html  ISSN 1523-6714

                                   2004 HV60

Observations:
     K04H60V* C2004 04 25.34519 15 06 21.20 -16 58 40.9          21.4 V EH091691
     K04H60V  C2004 04 25.37290 15 06 17.76 -16 58 58.8          21.2 V EH091691
     K04H60V  C2004 04 25.40004 15 06 14.34 -16 59 16.6          21.5 V EH091691
     K04H60V  C2004 04 26.28319 15 04 23.80 -17 08 55.8          21.8 V EH091291
     K04H60V  C2004 04 26.28748 15 04 23.26 -17 08 58.6          21.7 V EH091291
     K04H60V  C2004 04 26.29201 15 04 22.69 -17 09 01.5          21.9 V EH091291
     K04H60V  C2004 04 28.29240 15 00 10.23 -17 30 35.3          21.6 V EH091291
     K04H60V  C2004 04 28.30099 15 00 09.14 -17 30 40.6          21.2 V EH091291
     K04H60V  C2004 04 28.30996 15 00 07.97 -17 30 46.5          21.3 V EH091291
     K04H60V  C2004 04 30.29127 14 55 56.23 -17 51 42.3          22.1 V EH091291
     K04H60V  C2004 04 30.30404 14 55 54.54 -17 51 50.0          21.6 V EH091291
     K04H60V  C2004 04 30.31217 14 55 53.47 -17 51 54.8          21.6 V EH091291

Observer details:
291 LPL/Spacewatch II.  Observers R. S. McMillan, T. H. Bressi.  1.8-m f/2.7
    reflector + CCD.
691 Steward Observatory, Kitt Peak.  Observer J. V. Scotti.  0.9-m f/3
    reflector + CCD.

Orbital elements:
2004 HV60
Epoch 2004 Apr. 25.0 TT = JDT 2453120.5                 MPC
M   0.08815              (2000.0)            P               Q
n   0.00069993     Peri.  149.09045     -0.58829068     -0.39780362
a 125.6316135      Node    44.83935     -0.77761192     +0.03939919
e   0.9753369      Incl.   93.17971     +0.22188687     -0.91662423
P1408              H   16.8           G   0.15
From 12 observations 2004 Apr. 25-30.

Ephemeris:
2004 HV60                a,e,i = 125.63, 0.98, 93                q = 3.0985
Date    TT    R. A. (2000) Decl.     Delta      r     Elong.  Phase     V
2004 04 25    15 07.07   -16 54.8    2.340    3.326   166.0     4.2    21.6
2004 05 05    14 45.91   -18 39.4    2.353    3.361   177.5     0.8    21.4
2004 05 15    14 25.03   -20 10.6    2.412    3.399   165.0     4.4    21.8
2004 05 25    14 05.83   -21 27.3    2.514    3.438   151.5     8.1    22.1
2004 06 04    13 49.37   -22 31.7    2.653    3.480   138.6    11.1    22.3

Timothy B. Spahr             (C) Copyright 2004 MPC           M.P.E.C. 2004-H91

Read MPEC 2004-H90 Read MPEC 2004-J01


Our Web policy. Index to the CBAT/MPC/ICQ pages.


Valid HTML 4.01!